星链-30607 (STARLINK-30607 )

导读 | 星芒AI

STARLINK-30607 是 SpaceX Starlink 卫星互联网项目中的第 30607 颗卫星。该卫星属于星链计划的中轨道卫星群,旨在为全球用户提供高速、低延迟的宽带互联网服务。它于近期由猎鹰 9 号火箭发射升空,加入星链星座,提升网络覆盖与连接稳定性。该卫星采用先进推进和通信技术,支持自动避碰功能,以确保在轨安全。星链项目持续扩展,推动全球互联网接入的普及与数字化发展。

基本信息
目录编号:
58099
目录名称:
STARLINK-30607
国际标识:
2023-161C
轨道中心:
EARTH
卫星名称:
星链-30607
卫星全名:
星链-30607 (STARLINK-30607 )
卫星状态:
在轨 (已飞行791 天)
发射日期:
2023-10-21 UTC
国别 :
美国 (US)
星等 :
--
轨道信息
数据来源 国际轨道数据 AOE轨道数据
星历时间 2025-12-20T05:14:53+0800
11小时前
查看轨道信息
2025-12-20T09:00:00+0800
8小时前
查看轨道信息
半长轴 6853.371km 6853.356km
偏心率 0.0001069 0.0000951
轨道倾角 53.160° 53.160°
近地点辐角 82.002° 85.651°
升交点赤经 166.190° 165.470°
平近点角 278.110° 56.097°
近地点 474.501km 474.567km
远地点 475.967km 475.871km
周期 94.106分钟 94.105分钟
每日圈数 15.301938 15.301987
详细信息
固有亮度:
5
最大亮度:
0.3
卫星平台:
Starlink v2.0 mini
覆盖范围:
全球
运营商:
太空探索技术公司
运营商所在国:
美国
制造商(研发单位):
太空探索技术公司
制造商所在国:
美国
使用方式:
暂无
卫星简介
星链(Starlink)计划是由太空探索技术公司(SpaceX)提出的一个巨型低轨卫星互联网星座项目,计划在2019年至2024年间在太空搭建由约1.2万颗卫星组成的“星链”网络,其中1584颗将部署在地球上空550千米处的近地轨道,并从2020年开始工作。该卫星仍在工作。
2D轨道图
3D轨道图
轨道高度分析图
轨道倾角分析图
轨道综合分析图
查看轨道综合分析图